DIAMANT DEB, 2684

Orbit data source: Space-Track

DIAMANT DEB, 2684 is space debris in LEO originally from a launch on Wed, 15 Feb 1967 UTC launched from the Hamma Guira Space Track Range (HGSTR). Debris objects in space refer to the collection of defunct objects orbiting the Earth. Examples of debris include non-operational satellites, rocket bodies, and fragments generated from explosions, collisions, or faulty payload assembly.

Loading next visibility...
DIAMANT DEB details
Identifier
2684, 1967-014C
Orbit
LEO
Last TLE update3 days ago
Origin
Flag of FRCNES (FR)
ManufacturerUnknown
MissionSpacecraft
Bus & MotorUnknown
MassUnknown
Launch date (UTC)
1967-02-15 (58 years ago)
Launch vehicleUnknown
Launch site
Hamma Guira Space Track Range (HGSTR)
Object type
Payload
Rocket body
Debris
Shape & HBRUnknown
Radar Cross SectionSmall (<0.1 m²)

Expand to show TLE details & history

TLE from 3 days ago
0 DIAMANT DEB
1 02684U 67014C   25038.09928464  .00003502  00000-0  83395-3 0  9999
2 02684  39.9591 292.2564 0459779 231.0264 124.8676 14.05485462871220
Epoch: 2025-02-07T02:22Z
Definitive object data (Epoch: 2025-02-07T02:22:58.192Z)
Latitude-0.00005°
Longitude119.0475°
Altitude1,074.852 km
Speed7.215 km/s
True Right ascension19h 29m 01s
True Declination0° 00' 00"
Sunlit
Object was in daylight at TLE epoch
Visualization TLE readout
Latitude31.15665°
Longitude152.351°
Altitude1,198.581 km
Speed7.096 km/s
Apparent Right ascension00h 55m 34s
Apparent Declination-1° 56' 19"
Sunlit
Object is in daylight
Visualization observer readout
Local Sidereal Time18:22:21
Azimuth86.143° E
Elevation-7.61°
Doppler factor1
Orbital elements
Apogee altitude1,210.774 km
Perigee altitude543.605 km
Semi-major axis7,255.326 km
Eccentricity0.0459779
Inclination39.9591°
RAAN292.2564°
Arg. of periapsis231.0264°
True anomaly129.04904°
Mean anomaly124.8676°
Eccentric anomaly126.97224°
Mean motion3.51203 °/min
BSTAR0.00083395
Orbital period102.5 mins
Loading maneuver chart data...
Loading historical data...
Loading historical data...
Loading historical data...
Loading historical data...
Loading historical data...
Loading historical data...
Loading historical data...

DIAMANT DEB Visibility forecast

Observer location: undefined°, undefined

Span
Click to sort rows by Start time (UTC) header in descending order
Start Az.
Max El. time (UTC)
Max El. Az.
Max El.
End time (UTC)
End Az.
8 mins2025-02-09 17:37:50.208Z170.969° S2025-02-09 17:41:50.208Z135.643° SSE17.463°2025-02-09 17:45:50.208Z102.263° ESE
12 mins2025-02-09 19:23:50.208Z219.979° SW2025-02-09 19:28:50.208Z164.272° S37.568°2025-02-09 19:35:50.208Z82.7° E
13 mins2025-02-09 21:11:50.208Z257.243° W2025-02-09 21:17:50.208Z169.505° S44.905°2025-02-09 21:24:50.208Z83.523° E
13 mins2025-02-09 22:59:50.208Z276.292° WNW2025-02-09 23:06:50.208Z153.666° SSE44.867°2025-02-09 23:12:50.208Z102.193° ESE
12 mins2025-02-10 00:48:50.208Z276.981° WNW2025-02-10 00:54:50.208Z212.765° SW36.896°2025-02-10 01:00:50.208Z137.221° SSE
5 mins2025-02-10 02:39:50.208Z247.833° W2025-02-10 02:41:50.208Z229.173° WSW14.661°2025-02-10 02:44:50.208Z199.049° SSW
|